Lethbridge, Alberta

4:09 AM MDT on March 25, 2017 (GMT -0600)
Lethbridge Airport

Weather History for CYQL - June, 2013

Change the Weather History Date:

Tuesday, June 4, 2013

  Actual Average Record
Temperature  
Mean Temperature 50 °F -  
Max Temperature 65 °F 74 °F 81 °F (2016)
Min Temperature 35 °F 49 °F 27 °F (2014)
Degree Days  
Heating Degree Days 15    
Moisture  
Dew Point 37 °F    
Average Humidity 62    
Maximum Humidity 93    
Minimum Humidity 21    
Precipitation  
Precipitation 0.00 in 0.08 in - ()
Sea Level Pressure  
Sea Level Pressure 30.22 in    
Wind  
Wind Speed 8 mph ()    
Max Wind Speed 15 mph    
Max Gust Speed 22 mph    
Visibility 9.4 miles    
Events      
Averages and records for this station are not official NWS values.
T = Trace of Precipitation, MM = Missing Value Source: Averaged Metar Reports

Daily Weather History Graph

Daily Weather History Graph

Search for Another Location

Airport or City:

Trip Planner

Search our weather history database for the weather conditions in past years. The results will help you decide how hot, cold, wet, or windy it might be!

Date:

Astronomy

Jun. 04, 2013 Rise Set
Actual Time 5:26 AM MDT 9:33 PM MDT
Civil Twilight 4:43 AM MDT 10:15 PM MDT
Nautical Twilight 3:43 AM MDT 11:16 PM MDT
Astronomical Twilight 2:01 AM MDT 12:57 AM MDT
Moon 3:18 AM MDT (6/4) 5:49 PM MDT (6/4)
Length of Visible Light 17h 31m
Length of Day
16h 06m
Waning Crescent, 14% of the Moon is Illuminated
Jun 4
Waning Crescent
Jun 8
New
Jun 16
First Quarter
Jun 23
Full
Jun 29
Last Quarter

Hourly Weather History & Observations

Time (MDT) Temp. Windchill Dew Point Humidity Pressure Visibility Wind Dir Wind Speed Gust Speed Precip Events Conditions
12:00 AM 44 °F - 43 °F 93% 30.23 in 10 mi SSW 8.1 mph - -  
12:00 AM 44.6 °F 40.2 °F 42.8 °F 93% 30.23 in 9.0 mi SSW 8.1 mph - N/A   Scattered Clouds
1:00 AM 42.8 °F 37.5 °F 39.2 °F 87% 30.23 in 9.0 mi SW 9.2 mph - N/A   Clear
2:00 AM 39.2 °F 32.5 °F 37.4 °F 93% 30.23 in 9.0 mi SSW 10.4 mph - N/A   Clear
3:00 AM 39.2 °F 33.0 °F 37.4 °F 93% 30.24 in 9.0 mi SSW 9.2 mph - N/A   Clear
4:00 AM 37.4 °F 30.3 °F 35.6 °F 93% 30.23 in 9.0 mi WSW 10.4 mph - N/A   Clear
5:00 AM 35.6 °F 29.9 °F 33.8 °F 93% 30.24 in 9.0 mi SW 6.9 mph - N/A   Clear
6:00 AM 36 °F - 35 °F 92% 30.25 in 10 mi WSW 5.8 mph - -  
6:00 AM 35.6 °F 31.7 °F 33.8 °F 93% 30.25 in 40.0 mi SW 4.6 mph - N/A   Partly Cloudy
7:00 AM 41.0 °F 39.0 °F 39.2 °F 93% 30.26 in 40.0 mi South 3.5 mph - N/A   Partly Cloudy
8:00 AM 46.4 °F 44.3 °F 41.0 °F 81% 30.26 in 40.0 mi SW 4.6 mph - N/A   Partly Cloudy
9:00 AM 50.0 °F - 42.8 °F 76% 30.26 in 40.0 mi SSW 4.6 mph - N/A   Partly Cloudy
10:00 AM 55.4 °F - 39.2 °F 54% 30.26 in 45.0 mi SSE 6.9 mph - N/A   Partly Cloudy
11:00 AM 57.2 °F - 35.6 °F 44% 30.26 in 40.0 mi South 11.5 mph - N/A   Partly Cloudy
12:00 PM 59 °F - 36 °F 31% 30.25 in 10 mi South 10.4 mph - -  
12:00 PM 59.0 °F - 35.6 °F 42% 30.25 in 40.0 mi South 12.7 mph - N/A   Partly Cloudy
1:00 PM 60.8 °F - 35.6 °F 39% 30.24 in 40.0 mi South 9.2 mph 18.4 mph N/A   Partly Cloudy
2:00 PM 60.8 °F - 35.6 °F 39% 30.23 in 40.0 mi South 11.5 mph 18.4 mph N/A   Partly Cloudy
3:00 PM 62.6 °F - 35.6 °F 37% 30.22 in 40.0 mi South 15.0 mph 21.9 mph N/A   Partly Cloudy
4:00 PM 64.4 °F - 32.0 °F 30% 30.21 in 40.0 mi South 11.5 mph - N/A   Partly Cloudy
5:00 PM 64.4 °F - 32.0 °F 30% 30.20 in 40.0 mi SSE 10.4 mph 18.4 mph N/A   Partly Cloudy
6:00 PM 64 °F - 33 °F 21% 30.18 in 10 mi SSE 13.8 mph - -  
6:00 PM 64.4 °F - 33.8 °F 32% 30.18 in 40.0 mi SE 12.7 mph 20.7 mph N/A   Partly Cloudy
7:00 PM 64.4 °F - 33.8 °F 32% 30.16 in 40.0 mi SE 13.8 mph - N/A   Partly Cloudy
8:00 PM 62.6 °F - 35.6 °F 37% 30.16 in 40.0 mi SSE 13.8 mph - N/A   Partly Cloudy
9:00 PM 57.2 °F - 42.8 °F 59% 30.16 in 40.0 mi SSE 10.4 mph - N/A   Partly Cloudy
10:00 PM 51.8 °F - 42.8 °F 71% 30.16 in 30.0 mi SE 8.1 mph - N/A   Partly Cloudy
11:00 PM 50.0 °F - 41.0 °F 71% 30.15 in 9.0 mi SSE 10.4 mph - N/A   Clear